This is the latest recevied weather packets stored in our database for station/object KJ5BMY-13. If no packets are shown the sender has not sent any weather packets the latest 1 day(s).
| Time | Temp. | Humidity | Pressure | Rain* | Wind** | Luminosity | Snow |
|---|---|---|---|---|---|---|---|
| 1778004596 | 28.89° C | 66% | 1007.2 hPa | 0 mm | 0.89 m/s, 216° | - | - |
| 1778004292 | 28.89° C | 66% | 1007.1 hPa | 0 mm | 0.89 m/s, 170° | - | - |
| 1778003989 | 28.89° C | 66% | 1007.1 hPa | 0 mm | 0.45 m/s, 136° | - | - |
| 1778003685 | 28.89° C | 66% | 1007.2 hPa | 0 mm | 0.89 m/s, 137° | - | - |
| 1778003382 | 28.89° C | 66% | 1007.1 hPa | 0 mm | 1.34 m/s, 109° | - | - |
| 1778003079 | 28.33° C | 66% | 1007.3 hPa | 0 mm | 1.34 m/s, 83° | - | - |
| 1778002775 | 28.33° C | 67% | 1007.2 hPa | 0 mm | 1.34 m/s, 214° | - | - |
| 1778002472 | 28.89° C | 65% | 1007.3 hPa | 0 mm | 0.89 m/s, 299° | - | - |
| 1778002169 | 28.89° C | 67% | 1007.3 hPa | 0 mm | 1.34 m/s, 72° | - | - |
| 1778001867 | 28.33° C | 67% | 1007.4 hPa | 0 mm | 2.24 m/s, 199° | - | - |
| 1778001566 | 27.78° C | 68% | 1007.2 hPa | 0 mm | 0.89 m/s, 118° | - | - |
| 1778001264 | 27.78° C | 68% | 1007.6 hPa | 0 mm | 0.45 m/s, 74° | - | - |
| 1778000960 | 27.78° C | 69% | 1007.3 hPa | 0 mm | 0.89 m/s, 192° | - | - |
| 1778000657 | 27.78° C | 68% | 1007.5 hPa | 0 mm | 1.79 m/s, 159° | - | - |
| 1778000352 | 27.78° C | 68% | 1007.6 hPa | 0 mm | 0.89 m/s, 267° | - | - |
| 1778000048 | 27.78° C | 69% | 1007.3 hPa | 0 mm | 0.45 m/s, 143° | - | - |
| 1777999743 | 27.78° C | 68% | 1007.2 hPa | 0 mm | 0.89 m/s, 84° | - | - |
| 1777999440 | 27.78° C | 69% | 1007.3 hPa | 0 mm | 2.24 m/s, 219° | - | - |
| 1777999139 | 27.78° C | 69% | 1007.4 hPa | 0 mm | 1.34 m/s, 328° | - | - |
| 1777998837 | 27.78° C | 68% | 1007.3 hPa | 0 mm | 0.89 m/s, 56° | - | - |
| 1777998535 | 27.22° C | 69% | 1007.2 hPa | 0 mm | 1.34 m/s, 143° | - | - |
| 1777998231 | 26.67° C | 71% | 1007.2 hPa | 0 mm | 2.68 m/s, 246° | - | - |
| 1777997928 | 27.78° C | 69% | 1007.1 hPa | 0 mm | 2.24 m/s, 3° | - | - |
| 1777997625 | 27.22° C | 69% | 1007 hPa | 0 mm | 3.58 m/s, 139° | - | - |
| 1777997322 | 26.67° C | 70% | 1007 hPa | 0 mm | 0.89 m/s, 208° | - | - |
* Rain latest hour (hover to see other rain measurements)
** Current wind speed in m/s (hover to see current wind gust speed)